When you browse on this site, cookies collect data to enhance your experience and personalize the content and advertising you see.
Visit our Privacy Policy to learn more. By continuing to use the site, you agree to this use of cookies and data.
  • In Spain
  • List of Countries
  • For 7 days
  • Water Temperature
  • Satellite Maps
  • Weather Map
  • Weather Widgets
  • user-avatar
    Login

    Hourly Weather Burajda

    Today, 25 April, Thursday

    Time Temperature Precipitation Wind Pressure Humidity
    00:00 +21°C° 0 mm 3 mps 711 mmHg 17%
    01:00 +21°C° 0 mm 3 mps 711 mmHg 19%
    02:00 +20°C° 0 mm 3 mps 710 mmHg 20%
    03:00 +19°C° 0 mm 4 mps 710 mmHg 21%
    04:00 +19°C° 0 mm 3 mps 710 mmHg 23%
    05:00 +18°C° 0 mm 3 mps 710 mmHg 25%
    06:00 +18°C° 0 mm 3 mps 710 mmHg 27%
    07:00 +19°C° 0 mm 3 mps 711 mmHg 25%
    08:00 +20°C° 0 mm 4 mps 711 mmHg 23%
    09:00 +22°C° 0 mm 4 mps 711 mmHg 20%
    10:00 +23°C° 0 mm 4 mps 711 mmHg 18%
    11:00 +25°C° 0 mm 3 mps 711 mmHg 17%
    12:00 +27°C° 0 mm 3 mps 711 mmHg 15%
    13:00 +27°C° 0 mm 3 mps 710 mmHg 14%
    14:00 +28°C° 0 mm 3 mps 710 mmHg 13%
    15:00 +28°C° 0 mm 2 mps 709 mmHg 13%
    16:00 +28°C° 0 mm 3 mps 709 mmHg 13%
    17:00 +28°C° 0 mm 3 mps 709 mmHg 13%
    18:00 +28°C° 0 mm 3 mps 709 mmHg 13%
    19:00 +27°C° 0 mm 3 mps 709 mmHg 14%
    20:00 +27°C° 0 mm 4 mps 709 mmHg 15%
    21:00 +26°C° 0 mm 4 mps 709 mmHg 16%
    22:00 +25°C° 0 mm 4 mps 709 mmHg 16%
    23:00 +25°C° 0 mm 4 mps 709 mmHg 17%

    Tomorrow, 26 April, Friday

    Time Temperature Precipitation Wind Pressure Humidity
    00:00 +23°C° 0 mm 4 mps 708 mmHg 18%
    01:00 +24°C° 0 mm 3 mps 708 mmHg 18%
    02:00 +22°C° 0 mm 3 mps 708 mmHg 19%
    03:00 +22°C° 0 mm 3 mps 708 mmHg 19%
    04:00 +22°C° 0 mm 3 mps 708 mmHg 20%
    05:00 +21°C° 0 mm 3 mps 708 mmHg 21%
    06:00 +20°C° 0 mm 4 mps 708 mmHg 22%
    07:00 +22°C° 0 mm 4 mps 708 mmHg 20%
    08:00 +23°C° 0 mm 5 mps 708 mmHg 18%
    09:00 +26°C° 0 mm 6 mps 709 mmHg 16%
    10:00 +27°C° 0 mm 6 mps 708 mmHg 15%
    11:00 +28°C° 0 mm 5 mps 708 mmHg 14%
    12:00 +30°C° 0 mm 5 mps 708 mmHg 13%
    13:00 +30°C° 0 mm 5 mps 708 mmHg 13%
    14:00 +32°C° 0 mm 4 mps 707 mmHg 13%
    15:00 +33°C° 0 mm 4 mps 707 mmHg 13%
    16:00 +33°C° 0 mm 4 mps 707 mmHg 13%
    17:00 +33°C° 0 mm 4 mps 706 mmHg 13%
    18:00 +33°C° 0 mm 5 mps 706 mmHg 14%
    19:00 +32°C° 0 mm 5 mps 706 mmHg 15%
    20:00 +30°C° 0 mm 5 mps 706 mmHg 16%
    21:00 +29°C° 0 mm 5 mps 707 mmHg 18%
    22:00 +29°C° 0 mm 6 mps 707 mmHg 22%
    23:00 +28°C° 0 mm 6 mps 707 mmHg 26%

    Day after tomorrow, 27 April, Saturday

    Time Temperature Precipitation Wind Pressure Humidity
    00:00 +27°C° 0 mm 6 mps 707 mmHg 31%
    01:00 +27°C° 0 mm 6 mps 707 mmHg 32%
    02:00 +26°C° 0 mm 5 mps 706 mmHg 34%
    03:00 +26°C° 0 mm 5 mps 706 mmHg 36%
    04:00 +25°C° 0 mm 4 mps 706 mmHg 38%
    05:00 +25°C° 0 mm 4 mps 706 mmHg 39%
    06:00 +23°C° 0 mm 4 mps 706 mmHg 40%
    07:00 +25°C° 0 mm 4 mps 707 mmHg 36%
    08:00 +26°C° 0 mm 5 mps 707 mmHg 32%
    09:00 +27°C° 0 mm 5 mps 707 mmHg 28%
    10:00 +28°C° 0.2 mm 5 mps 707 mmHg 27%
    11:00 +29°C° 0.2 mm 5 mps 707 mmHg 26%
    12:00 +29°C° 0.2 mm 5 mps 707 mmHg 25%
    13:00 +32°C° 0.1 mm 6 mps 707 mmHg 22%
    14:00 +33°C° 0.1 mm 6 mps 706 mmHg 19%
    15:00 +34°C° 0.1 mm 7 mps 706 mmHg 17%
    16:00 +34°C° 0 mm 7 mps 705 mmHg 16%
    17:00 +34°C° 0 mm 7 mps 705 mmHg 16%
    18:00 +34°C° 0 mm 7 mps 704 mmHg 15%
    19:00 +34°C° 0.1 mm 7 mps 705 mmHg 16%
    20:00 +33°C° 0.1 mm 7 mps 705 mmHg 17%
    21:00 +32°C° 0.1 mm 7 mps 705 mmHg 17%
    22:00 +30°C° 0.3 mm 7 mps 706 mmHg 22%
    23:00 +29°C° 0.3 mm 7 mps 706 mmHg 26%

    28 April, Sunday

    Time Temperature Precipitation Wind Pressure Humidity
    00:00 +28°C° 0.3 mm 7 mps 706 mmHg 31%
    01:00 +27°C° 0.5 mm 6 mps 706 mmHg 32%
    02:00 +27°C° 0.5 mm 4 mps 706 mmHg 33%
    03:00 +26°C° 0.5 mm 2 mps 705 mmHg 35%
    04:00 +26°C° 0 mm 3 mps 705 mmHg 34%
    05:00 +26°C° 0 mm 4 mps 705 mmHg 34%
    06:00 +25°C° 0 mm 5 mps 705 mmHg 34%
    07:00 +27°C° 0 mm 5 mps 705 mmHg 34%
    08:00 +28°C° 0 mm 6 mps 706 mmHg 34%
    09:00 +30°C° 0 mm 7 mps 706 mmHg 34%
    10:00 +33°C° 0 mm 7 mps 706 mmHg 30%
    11:00 +34°C° 0 mm 7 mps 706 mmHg 25%
    12:00 +36°C° 0 mm 7 mps 706 mmHg 20%
    13:00 +36°C° 0 mm 7 mps 706 mmHg 21%
    14:00 +35°C° 0 mm 6 mps 705 mmHg 21%
    15:00 +35°C° 0 mm 6 mps 705 mmHg 22%
    16:00 +35°C° 0 mm 5 mps 705 mmHg 22%
    17:00 +35°C° 0 mm 4 mps 705 mmHg 23%
    18:00 +34°C° 0 mm 3 mps 705 mmHg 23%
    19:00 +33°C° 0 mm 4 mps 705 mmHg 24%
    20:00 +32°C° 0 mm 6 mps 706 mmHg 25%
    21:00 +32°C° 0 mm 7 mps 706 mmHg 26%
    22:00 +30°C° 0 mm 7 mps 706 mmHg 27%
    23:00 +29°C° 0 mm 7 mps 706 mmHg 27%

    29 April, Monday

    Time Temperature Precipitation Wind Pressure Humidity
    00:00 +28°C° 0 mm 7 mps 706 mmHg 28%
    01:00 +27°C° 0 mm 7 mps 706 mmHg 32%
    02:00 +26°C° 0 mm 6 mps 706 mmHg 36%
    03:00 +24°C° 0 mm 6 mps 705 mmHg 41%
    04:00 +24°C° 0 mm 6 mps 706 mmHg 42%
    05:00 +23°C° 0 mm 5 mps 706 mmHg 44%
    06:00 +22°C° 0 mm 5 mps 706 mmHg 46%
    07:00 +25°C° 0 mm 5 mps 707 mmHg 41%
    08:00 +26°C° 0 mm 5 mps 707 mmHg 36%
    09:00 +28°C° 0 mm 5 mps 708 mmHg 30%
    10:00 +30°C° 0 mm 5 mps 708 mmHg 26%
    11:00 +33°C° 0 mm 5 mps 707 mmHg 22%
    12:00 +35°C° 0 mm 4 mps 707 mmHg 17%
    13:00 +36°C° 0 mm 4 mps 707 mmHg 16%
    14:00 +37°C° 0 mm 3 mps 706 mmHg 14%
    15:00 +38°C° 0 mm 2 mps 705 mmHg 13%
    16:00 +38°C° 0 mm 2 mps 705 mmHg 12%
    17:00 +38°C° 0 mm 2 mps 705 mmHg 12%
    18:00 +38°C° 0 mm 2 mps 705 mmHg 12%
    19:00 +37°C° 0 mm 4 mps 705 mmHg 14%
    20:00 +36°C° 0 mm 6 mps 705 mmHg 16%
    21:00 +35°C° 0 mm 8 mps 706 mmHg 17%
    22:00 +34°C° 0 mm 8 mps 706 mmHg 18%
    23:00 +33°C° 0 mm 8 mps 706 mmHg 19%

    30 April, Tuesday

    Time Temperature Precipitation Wind Pressure Humidity
    00:00 +33°C° 0 mm 7 mps 705 mmHg 20%
    01:00 +32°C° 0 mm 7 mps 705 mmHg 22%
    02:00 +30°C° 0 mm 7 mps 705 mmHg 23%
    03:00 +29°C° 0 mm 7 mps 705 mmHg 25%
    04:00 +29°C° 0 mm 6 mps 705 mmHg 26%
    05:00 +28°C° 0 mm 6 mps 705 mmHg 26%
    06:00 +28°C° 0 mm 6 mps 705 mmHg 27%
    07:00 +30°C° 0 mm 7 mps 706 mmHg 24%
    08:00 +33°C° 0 mm 8 mps 706 mmHg 21%
    09:00 +35°C° 0 mm 9 mps 707 mmHg 17%
    10:00 +38°C° 0 mm 8 mps 706 mmHg 16%
    11:00 +40°C° 0 mm 7 mps 706 mmHg 14%
    12:00 +41°C° 0 mm 6 mps 706 mmHg 13%
    13:00 +41°C° 0 mm 6 mps 705 mmHg 13%
    14:00 +42°C° 0 mm 5 mps 704 mmHg 12%
    15:00 +42°C° 0 mm 5 mps 704 mmHg 12%
    16:00 +41°C° 0 mm 5 mps 703 mmHg 13%
    17:00 +41°C° 0 mm 4 mps 703 mmHg 13%
    18:00 +41°C° 0 mm 4 mps 703 mmHg 14%
    19:00 +38°C° 0 mm 3 mps 703 mmHg 15%
    20:00 +37°C° 0 mm 2 mps 703 mmHg 16%
    21:00 +34°C° 0 mm 1 mps 703 mmHg 18%
    22:00 +35°C° 0 mm 2 mps 703 mmHg 16%
    23:00 +35°C° 0 mm 3 mps 703 mmHg 13%
    Show more